Reflectivity
-20 -20 -20 -20 -20 -20 -20 3 -12 -20 -20 -15 -20 -14 25 24 28 -20 -20 -20 -20 -20 -20 -20 -20 -20 -20 -18 -13 -15 -16 -20 -4 -1 -2 -12 -20 -20 -20 -20 -20 -20 -20
-20 -20 -20 -20 -20 -20 -20 -20 -19 -4 2 -6 -19 -15 20 -20 -4 27 -20 -20 23 -20 -20 -20 -20 -20 -20 -20 -3 -0 -20 -20 2 -16 -13 9 3 -4 -20 -20 -20 -20 -20
-20 -20 -20 -20 -20 -20 -20 -11 -20 -20 -1 6 -19 -1 3 -14 -11 -19 -8 -20 -17 24 -4 -9 -20 5 11 26 26 24 -8 -20 -8 -19 16 -20 -20 -19 1 3 11 12 1
-20 -2 -11 -19 0 3 -2 5 9 7 -16 -7 4 -10 -3 22 23 8 -20 -10 -20 -20 -20 -20 25 18 9 26 16 24 21 21 26 26 18 13 -20 -20 -20 -20 -6 5 7
-8 -20 -9 -6 -16 -5 11 -2 -4 9 3 -4 -6 -2 14 8 -10 -0 -20 1 -19 -20 -20 -19 -20 -20 9 -0 19 21 20 27 20 26 29 31 22 -3 -17 -20 -20 -20 -20
-20 -20 -20 -20 -20 -20 -20 -20 -14 19 0 -16 -15 4 -1 15 23 -9 -20 -20 -20 -20 -20 -20 -20 -20 -20 -20 -20 -16 -20 -11 21 34 24 1 27 30 25 -19 -6 14 -20
-20 -20 -20 -20 -20 -20 -20 -20 -20 -20 6 -20 -20 -20 -20 -20 -20 33 20 13 23 -20 -20 -20 -20 -20 -20 -20 -20 -20 -20 -20 -20 -20 17 18 18 -1 25 24 30 -15 -14
-20 -20 -20 -20 -20 -20 -20 -20 -20 -18 -0 -20 -20 -20 -20 -15 15 39 29 16 30 20 12 -15 -20 -20 -20 -20 -20 -20 -20 -20 -20 -14 9 4 17 20 19 -6 12 20 20
-20 -20 -20 -20 -20 -20 -20 -20 -20 -20 -10 -20 -20 -20 -20 -20 -16 11 21 36 29 19 16 -4 -10 -20 -20 -17 -6 7 4 -20 -19 5 12 11 8 15 16 21 15 17 -6
-20 -20 -20 -20 -20 -20 -20 -20 -20 -20 -19 -20 -20 -20 -20 -16 -2 -18 3 3 14 13 8 35 36 18 -13 -3 -20 1 14 11 7 9 13 7 9 9 12 19 21 23 -17
-20 -20 -20 -20 -20 -20 -20 -20 -20 -20 -20 -20 -20 -20 -20 -20 5 -15 -20 -19 -19 -3 -17 -19 -18 12 10 -19 -20 8 5 9 -2 6 5 4 12 11 27 24 19 20 21
-20 -20 -20 -20 -20 -20 -20 -20 -20 -20 -20 -20 -20 -20 -20 -15 -20 -20 1 17 11 2 -1 -8 -4 -18 -20 -10 -16 4 10 2 3 0 10 19 15 3 13 19 19 22 21
-20 -20 -20 -20 -20 -20 -20 -20 -20 -20 -20 -20 -20 -20 -20 -20 -20 -20 -20 -20 -20 -20 -20 -20 -20 -20 -19 -20 -20 -20 -18 -10 9 3 8 8 -7 9 -19 -19 19 18 23
-20 -20 -20 -20 -20 -20 -20 -20 -20 -20 -20 -20 -20 -20 -20 -20 -20 -20 -20 -20 -20 -20 -20 -20 -20 -20 -20 -20 -20 -20 -20 -20 -15 7 2 -5 -13 -3 -17 -15 -5 14 22
-20 -20 -20 -20 -20 -20 -20 -20 -20 -20 -20 -20 -20 -20 -20 -20 -20 -20 -20 -20 -20 -20 -20 -20 -20 -20 -20 -20 -20 -20 -20 -20 -20 -20 -10 13 3 6 -20 -20 8 -7 -7
-20 -20 -20 -20 -20 -20 -20 -20 -20 -20 -20 -20 -20 -20 -20 -20 -20 -20 -20 -20 -20 -4 -18 -20 -20 -20 -20 -20 -20 -20 -20 -20 -20 -20 -20 -20 12 7 -12 -20 2 14 4
-20 -20 -20 -20 -20 -20 -20 -20 -20 -20 -20 -20 -20 -20 -20 -20 -20 -20 -20 -20 -20 -14 -14 -20 -20 -20 -20 -20 -20 -20 -20 -20 -20 -20 -20 -19 3 -18 -0 -2 9 18 21
-20 -20 -20 -20 -20 -20 -20 -20 -20 -20 -20 -20 -20 -20 -20 -20 -20 -20 -20 -20 -20 -20 -20 1 -20 -20 -20 -20 -20 -20 -20 -20 -20 -20 -20 9 -20 -18 -20 20 28 19 27
-20 -20 -20 -20 -20 -20 -20 -20 -20 -20 -20 -20 -20 -20 -20 -20 -20 -20 -20 -20 -20 -20 -20 -4 -20 -20 -20 -20 -20 -20 -20 -20 -20 -20 -20 -20 -20 -20 6 12 31 26 29
-20 -20 -20 -20 -20 -20 -20 -20 -20 -20 -20 -20 -20 -20 -20 -20 -20 -20 -20 -20 -20 -20 -20 -20 -7 -16 -20 -20 -20 -20 -15 -20 -20 -20 -20 -20 -20 -20 -7 13 13 28 28
-20 -20 -20 -20 -20 -20 -20 -20 -20 -20 -20 -20 -20 -20 -20 -20 -20 -20 -20 -20 -20 -2 -14 -5 -9 -18 -20 -20 -20 -20 1 -1 -2 -20 -20 -20 -20 -20 -20 -14 27 17 26
-20 -20 -20 -20 -20 -20 -20 -20 -20 -20 -20 -20 -20 -20 -20 -20 -20 -20 -20 -20 -20 -11 -7 -0 -4 -20 -20 -20 -20 1 2 -20 -1 -19 -5 -20 -20 -20 -20 -20 -11 13 12
-20 -20 -20 -20 -20 -20 -20 -20 -20 -20 -20 -20 -20 -20 -20 -20 -20 -20 -20 -20 -20 -20 -14 -7 -20 -20 -17 -16 3 7 4 3 -3 -20 -9 -20 -20 -20 -20 -20 -20 -10 13
-20 -20 -20 -20 -20 -20 -20 -20 -20 -20 -20 -20 -20 -20 -20 -20 -20 -20 -20 -20 -20 -20 -20 -20 -20 -20 -20 -0 4 -10 -16 -20 -20 -20 -20 1 -20 -9 -20 -20 -20 -14 -20
-20 -20 -20 -20 -20 -20 -20 -20 -20 -20 -20 -20 -20 -20 -20 -20 -20 -3 -4 -17 -4 -20 -20 -20 -20 6 5 4 -15 -20 -20 -3 -20 -20 -20 1 -19 -20 -20 -20 -20 -20 -20
-20 -20 -20 -20 -20 -20 -20 -20 -20 -20 -20 -20 -20 -20 -20 -20 -4 -2 -11 -20 9 5 -20 -18 -2 -20 -20 -20 -20 -20 -20 -4 -1 -11 -20 -1 -5 -7 -3 -20 -20 -20 -20
Wind_Speed
6 6 6 6 6 6 5 6 6 7 9 10 10 12 12 12 12 7 7 11 15 16 16 17 17 18 17 17 18 18 16 16 17 16 15 16 15 16 15 15 14 14 14
6 6 6 7 7 7 7 5 6 6 6 7 8 8 11 10 11 11 8 8 14 15 16 16 17 18 19 19 18 19 18 18 19 18 18 18 18 17 18 17 16 16 16
7 7 6 6 6 7 10 8 9 5 6 6 8 7 7 8 9 11 10 8 7 12 14 16 17 17 18 20 21 20 20 19 19 20 20 20 19 19 19 19 17 17 17
10 8 6 7 8 7 7 7 7 8 5 4 5 6 7 7 10 9 8 7 6 6 8 15 15 19 16 19 18 21 21 21 20 21 22 22 21 21 21 21 20 19 19
11 7 5 6 8 5 4 5 6 5 5 4 5 5 6 6 7 5 7 6 7 6 5 7 9 12 13 19 19 23 23 23 22 21 22 24 23 23 23 23 22 21 20
9 8 7 8 7 6 5 6 6 5 3 4 3 3 5 5 5 5 6 6 6 7 8 8 8 8 10 15 19 21 23 23 22 25 25 25 24 26 25 25 24 24 23
9 8 5 7 8 7 8 9 6 3 4 7 2 3 3 4 3 4 3 4 6 5 6 6 6 6 7 12 16 19 20 22 24 24 27 26 26 27 26 26 27 26 25
9 8 8 7 8 6 9 10 10 5 2 6 3 1 1 1 1 7 2 4 5 7 9 10 11 11 10 10 11 15 20 23 24 25 25 26 27 27 29 30 29 28 27
9 9 9 8 8 7 6 8 9 10 5 4 8 4 2 2 2 2 3 4 6 7 9 11 12 12 13 11 13 12 22 23 22 24 28 27 27 29 30 30 30 30 28
10 10 9 9 9 7 7 7 8 7 6 6 4 6 5 4 3 4 2 3 8 7 5 5 9 9 10 9 12 17 24 22 24 21 23 26 30 30 30 31 31 30 29
9 8 9 9 8 7 8 9 8 9 7 6 6 5 5 5 3 2 3 5 7 6 8 8 7 6 11 11 9 14 23 20 23 24 24 23 27 32 33 31 31 32 31
5 8 8 8 8 7 8 6 7 8 6 5 4 5 4 4 6 4 4 7 9 5 9 4 4 7 8 10 12 20 23 20 22 24 24 23 26 31 32 33 31 30 31
4 7 7 7 6 6 6 6 6 7 6 5 6 4 3 3 3 3 5 6 5 5 4 5 5 6 9 11 12 21 21 22 24 25 24 26 27 29 28 30 30 30 29
2 3 4 5 6 6 6 6 4 4 5 4 5 4 2 3 3 3 3 4 5 3 6 6 5 7 10 11 14 22 13 23 22 22 25 26 26 24 27 34 28 26 28
1 4 4 4 5 6 6 6 5 7 7 7 7 6 4 4 4 3 3 2 3 5 5 3 5 9 10 10 13 14 14 18 22 23 23 24 26 23 25 28 32 28 25
1 2 3 4 4 4 4 4 3 3 4 3 3 5 5 4 4 4 4 3 3 5 5 5 8 10 11 10 12 14 14 17 18 22 23 24 22 24 25 26 29 31 30
2 3 3 3 3 4 4 3 3 3 4 5 5 6 7 7 5 5 5 5 4 4 7 9 10 10 11 12 12 12 12 12 11 22 25 23 22 26 26 26 27 28 34
2 2 2 3 3 4 4 3 4 4 4 4 4 4 6 5 6 5 4 6 5 6 5 11 10 9 10 10 11 13 10 9 11 17 25 19 24 25 25 24 25 26 26
3 3 2 3 4 4 5 5 4 5 5 5 5 4 6 6 7 6 6 6 6 6 6 7 9 8 8 9 10 10 10 11 9 18 17 17 24 23 24 24 21 23 25
4 3 3 3 4 4 5 5 5 5 5 5 5 5 5 5 6 7 7 8 7 7 7 7 8 9 8 9 9 10 10 9 11 11 9 17 23 24 21 23 23 20 22
4 3 4 4 4 4 4 5 6 4 4 5 5 5 5 8 12 10 7 9 9 8 7 8 8 9 9 9 10 9 10 11 11 7 9 10 11 11 11 15 16 24 25
4 4 4 4 5 4 8 9 7 3 3 4 5 5 6 10 9 11 14 15 13 10 11 8 9 10 12 10 10 10 10 10 9 6 12 11 10 11 10 9 23 28 23
4 5 4 4 6 6 9 8 9 2 3 4 5 6 7 6 8 8 12 15 14 15 14 12 12 11 12 11 11 12 11 11 11 11 11 11 9 10 10 12 23 23 22
6 5 5 5 5 6 9 9 9 4 4 6 6 7 7 9 8 11 12 11 11 11 9 8 11 11 11 11 11 11 13 13 10 9 9 11 10 9 10 11 21 15 21
5 6 5 5 6 6 10 9 8 4 6 7 7 7 8 9 12 17 11 11 12 12 12 17 18 19 18 19 16 9 9 9 10 10 9 8 8 10 9 9 8 16 23
6 5 6 6 7 7 9 10 8 4 7 7 8 8 11 12 16 17 11 11 12 11 12 12 11 11 12 12 15 9 7 8 9 8 4 6 9 8 7 6 8 9 10
Wind_Direction
323 322 317 311 309 310 299 289 285 284 281 275 269 263 248 235 235 237 241 210 226 240 248 252 253 252 256 248 244 243 239 234 227 230 230 228 230 232 232 234 236 234 230
328 323 318 313 309 306 298 280 272 276 279 277 272 260 254 250 244 233 239 240 227 231 243 246 251 253 252 256 248 242 242 239 236 229 227 238 233 230 233 234 235 236 238
352 340 325 316 316 313 308 305 290 263 259 258 260 259 252 246 241 238 240 244 240 233 238 249 247 246 257 258 257 253 241 237 234 235 230 229 231 229 227 230 236 235 235
7 354 350 344 332 324 320 311 301 287 262 258 257 264 264 258 251 241 232 235 230 241 237 249 246 258 254 265 267 266 258 249 237 236 235 233 229 229 229 227 228 227 228
8 356 356 346 339 334 331 327 311 294 298 296 290 278 273 271 269 267 261 262 259 256 261 261 258 269 276 273 278 272 272 265 249 237 238 239 234 230 231 231 230 228 227
9 7 3 8 6 21 7 358 332 320 329 324 298 285 282 279 274 266 287 290 276 278 279 285 290 286 270 277 279 279 275 274 261 254 239 233 235 237 230 231 232 230 228
17 18 16 20 16 36 25 9 335 358 12 346 8 1 20 25 5 277 284 292 286 318 318 314 309 304 298 274 272 277 282 282 279 268 257 246 239 235 231 234 232 229 227
26 28 22 32 34 24 27 21 12 333 3 9 360 260 5 6 160 220 59 356 23 24 9 4 344 334 319 308 304 296 288 287 285 282 278 266 257 247 242 234 232 230 228
23 25 24 31 33 31 23 25 16 9 341 6 27 344 308 226 334 87 104 59 21 31 358 356 351 343 340 337 339 0 6 354 339 316 299 283 269 257 248 240 235 234 231
29 29 29 29 31 33 26 18 22 14 3 10 329 5 351 8 329 317 81 40 9 10 12 335 328 359 27 14 3 12 359 348 343 329 317 300 291 276 260 248 243 236 232
29 29 34 36 34 35 30 35 30 31 26 22 15 342 354 332 17 341 315 333 338 358 341 328 323 31 24 14 353 352 345 345 342 339 333 323 314 296 280 267 253 243 238
21 21 24 29 32 30 25 31 34 35 34 44 27 22 12 346 345 349 326 333 319 308 319 315 47 34 18 360 351 346 341 340 339 334 338 338 339 340 314 282 268 254 244
17 14 16 21 22 24 31 36 40 43 31 33 22 6 356 348 335 311 288 305 305 316 300 313 57 30 9 352 346 341 338 340 332 332 341 340 344 337 336 317 284 266 253
18 351 10 20 17 17 20 25 34 41 44 52 39 26 343 355 350 351 336 329 311 296 311 335 327 10 358 344 337 335 333 330 331 337 337 337 333 347 350 349 311 280 265
357 16 12 14 13 14 13 15 19 14 10 9 10 7 356 348 344 343 334 321 308 314 308 239 321 340 342 338 335 332 329 329 330 332 328 327 326 346 348 353 342 326 277
356 12 14 11 13 11 3 4 5 7 1 5 360 349 349 338 333 336 334 319 290 275 280 303 306 319 331 331 331 331 328 327 331 335 332 326 335 342 345 344 341 344 339
339 12 4 355 356 354 351 320 325 321 331 336 346 347 343 343 341 338 339 335 325 314 294 297 301 318 320 326 329 333 325 330 329 329 328 323 345 340 338 337 330 339 342
306 328 334 331 334 337 340 328 322 317 305 312 325 330 335 341 336 332 330 323 312 313 298 301 302 306 309 321 322 322 326 325 324 322 327 339 339 337 333 327 328 330 332
250 247 268 299 317 324 321 310 302 309 306 304 309 312 319 330 329 325 323 317 314 305 305 302 307 306 305 319 319 316 321 320 321 323 318 334 334 329 330 325 326 332 334
237 244 258 277 291 302 303 302 303 296 292 292 283 278 289 302 307 305 309 316 314 311 311 310 310 309 311 320 312 319 321 322 321 323 321 331 326 326 325 328 330 330 328
235 253 264 275 289 292 280 281 270 267 283 292 294 291 288 298 305 307 311 314 306 304 309 311 309 312 317 321 321 322 314 321 321 320 321 325 322 318 320 326 326 329 324
220 234 247 264 277 278 283 291 300 263 269 279 294 298 293 293 296 306 307 303 298 308 305 310 309 309 313 314 312 316 316 321 322 322 325 317 321 315 317 324 325 332 315
219 229 248 249 264 271 281 285 295 234 270 281 288 292 293 291 295 294 294 294 295 292 292 299 298 296 301 305 306 307 313 312 306 311 309 308 314 307 317 316 315 318 349
217 228 233 236 252 268 280 287 290 277 273 279 280 282 282 289 283 297 294 289 289 289 284 286 281 285 283 285 299 310 308 303 302 302 309 296 307 307 315 306 309 322 341
214 217 224 226 240 264 275 278 288 280 279 284 283 282 279 285 285 292 295 299 293 291 287 289 289 291 296 301 305 302 300 310 304 304 304 293 301 311 305 302 313 326 327
217 216 232 225 244 256 273 278 278 266 277 284 282 275 279 290 300 302 302 299 290 300 301 293 290 289 289 292 294 290 293 294 301 300 328 297 304 316 309 298 317 308 314